Grafton, MO

5:20 PM CST on January 21, 2017 (GMT -0600)
St. Charles

Weather History for KSET - May, 2013

Change the Weather History Date:

Wednesday, May 8, 2013

  Actual Average (KSTL) Record (KSTL)
Temperature  
Mean Temperature 66 °F -  
Max Temperature 81 °F 75 °F 90 °F (1963)
Min Temperature 51 °F 53 °F 36 °F (1976)
Growing Degree Days 16 (Base 50)    
Moisture  
Dew Point 54 °F    
Average Humidity 74    
Maximum Humidity 100    
Minimum Humidity 28    
Precipitation  
Precipitation 0.00 in - - ()
Sea Level Pressure  
Sea Level Pressure 29.99 in    
Wind  
Wind Speed 1 mph (SW)    
Max Wind Speed 13 mph    
Max Gust Speed -    
Visibility 7 miles    
Events Fog    
Averages and records for this station are not official NWS values.
T = Trace of Precipitation, MM = Missing Value Source: NWS Daily Summary

Daily Weather History Graph

Daily Weather History Graph

Search for Another Location

Airport or City:

Trip Planner

Search our weather history database for the weather conditions in past years. The results will help you decide how hot, cold, wet, or windy it might be!

Date:

Astronomy

May. 08, 2013 Rise Set
Actual Time 5:55 AM CDT 8:01 PM CDT
Civil Twilight 5:26 AM CDT 8:30 PM CDT
Nautical Twilight 4:50 AM CDT 9:06 PM CDT
Astronomical Twilight 4:11 AM CDT 9:46 PM CDT
Moon 5:03 AM CDT (5/8) 7:00 PM CDT (5/8)
Length of Visible Light 15h 04m
Length of Day
14h 05m
Waning Crescent, 2% of the Moon is Illuminated
May 8
Waning Crescent
May 9
New
May 17
First Quarter
May 24
Full
May 31
Last Quarter

Hourly Weather History & Observations

Time (CDT) Temp. Dew Point Humidity Pressure Visibility Wind Dir Wind Speed Gust Speed Precip Events Conditions
12:54 AM 57.9 °F 55.0 °F 90% 29.98 in 10.0 mi Calm Calm - N/A   Clear
1:54 AM 57.0 °F 55.0 °F 93% 29.97 in 10.0 mi Calm Calm - N/A   Clear
2:54 AM 55.9 °F 53.1 °F 90% 29.98 in 9.0 mi WSW 3.5 mph - N/A   Clear
3:54 AM 55.9 °F 54.0 °F 93% 29.99 in 8.0 mi Calm Calm - N/A   Clear
4:48 AM 53.6 °F 53.6 °F 100% 30.00 in 1.5 mi Calm Calm - N/A   Clear
4:52 AM 53.6 °F 53.6 °F 100% 30.00 in 0.5 mi Calm Calm - N/A Fog Fog
4:54 AM 54.0 °F 53.1 °F 97% 29.99 in 0.5 mi Calm Calm - N/A Fog Fog
5:02 AM 53.6 °F 51.8 °F 94% 30.00 in 1.2 mi Calm Calm - N/A   Clear
5:06 AM 53.6 °F 51.8 °F 94% 30.00 in 3.0 mi Calm Calm - N/A   Clear
5:54 AM 54.0 °F 52.0 °F 93% 30.00 in 4.0 mi Calm Calm - N/A   Clear
6:11 AM 51.8 °F 51.8 °F 100% 30.01 in 1.5 mi Calm Calm - N/A   Clear
6:28 AM 53.6 °F 51.8 °F 94% 30.02 in 2.5 mi Calm Calm - N/A   Clear
6:54 AM 55.0 °F 54.0 °F 96% 30.02 in 3.0 mi Calm Calm - N/A   Clear
7:54 AM 60.1 °F 57.0 °F 90% 30.03 in 7.0 mi Calm Calm - N/A   Clear
8:54 AM 66.0 °F 59.0 °F 78% 30.03 in 10.0 mi Calm Calm - N/A   Clear
9:54 AM 71.1 °F 55.9 °F 59% 30.03 in 10.0 mi West 4.6 mph - N/A   Clear
10:54 AM 75.0 °F 53.1 °F 46% 30.04 in 10.0 mi West 4.6 mph - N/A   Clear
11:54 AM 77.0 °F 52.0 °F 42% 30.03 in 10.0 mi SSE 3.5 mph - N/A   Clear
12:54 PM 79.0 °F 48.0 °F 34% 30.01 in 10.0 mi SSW 5.8 mph - N/A   Clear
1:54 PM 80.1 °F 44.1 °F 28% 30.00 in 10.0 mi SW 5.8 mph - N/A   Clear
2:54 PM 80.1 °F 51.1 °F 36% 29.99 in 10.0 mi SSE 5.8 mph - N/A   Clear
3:54 PM 80.1 °F 52.0 °F 38% 29.96 in 10.0 mi Variable 3.5 mph - N/A   Clear
4:54 PM 79.0 °F 52.0 °F 39% 29.95 in 10.0 mi SSE 6.9 mph - N/A   Mostly Cloudy
5:54 PM 77.0 °F 53.1 °F 43% 29.95 in 10.0 mi Calm Calm - N/A   Overcast
6:54 PM 72.0 °F 55.9 °F 57% 29.98 in 10.0 mi WNW 12.7 mph - N/A   Overcast
7:54 PM 70.0 °F 57.9 °F 65% 29.98 in 10.0 mi WNW 4.6 mph - N/A   Overcast
8:54 PM 68.0 °F 60.1 °F 76% 29.98 in 10.0 mi SE 3.5 mph - N/A   Overcast
9:54 PM 68.0 °F 60.1 °F 76% 29.98 in 10.0 mi Calm Calm - N/A   Overcast
10:54 PM 64.9 °F 59.0 °F 81% 29.98 in 10.0 mi Calm Calm - N/A   Mostly Cloudy
11:54 PM 64.0 °F 60.1 °F 87% 29.97 in 10.0 mi Calm Calm - N/A   Overcast